TimeEDT,TemperatureF,Dew PointF,Humidity,Sea Level PressureIn,VisibilityMPH,Wind Direction,Wind SpeedMPH,Gust SpeedMPH,PrecipitationIn,Events,Conditions,WindDirDegrees,DateUTC
12:15 AM,64.2,61.9,92,30.05,5.0,North,3.5,-,N/A,,Overcast,360,2013-10-16 04:15:00
12:35 AM,64.0,62.1,93,30.05,4.0,Calm,Calm,-,N/A,,Overcast,0,2013-10-16 04:35:00
12:55 AM,63.9,62.1,94,30.04,2.5,Calm,Calm,-,N/A,,Overcast,0,2013-10-16 04:55:00
1:15 AM,63.7,62.1,94,30.04,2.5,Calm,Calm,-,N/A,,Overcast,0,2013-10-16 05:15:00
1:35 AM,63.7,62.1,94,30.05,2.5,Calm,Calm,-,N/A,,Overcast,0,2013-10-16 05:35:00
1:55 AM,63.7,62.1,94,30.04,3.0,Calm,Calm,-,N/A,,Overcast,0,2013-10-16 05:55:00
2:15 AM,63.7,62.1,94,30.05,4.0,Calm,Calm,-,N/A,,Overcast,0,2013-10-16 06:15:00
2:35 AM,63.7,62.1,94,30.03,5.0,NNW,3.5,-,N/A,,Overcast,340,2013-10-16 06:35:00
2:55 AM,63.7,62.1,94,30.03,5.0,Calm,Calm,-,N/A,,Overcast,0,2013-10-16 06:55:00
3:15 AM,63.5,61.9,94,30.03,4.0,Calm,Calm,-,N/A,,Overcast,0,2013-10-16 07:15:00
3:35 AM,63.5,61.9,94,30.03,5.0,Calm,Calm,-,N/A,,Overcast,0,2013-10-16 07:35:00
3:55 AM,63.5,61.9,94,30.02,5.0,NNE,3.5,-,N/A,,Overcast,20,2013-10-16 07:55:00
4:15 AM,63.5,61.9,94,30.02,5.0,Calm,Calm,-,N/A,,Overcast,0,2013-10-16 08:15:00
4:35 AM,63.5,61.7,94,30.03,5.0,Calm,Calm,-,N/A,,Overcast,0,2013-10-16 08:35:00
4:55 AM,63.5,61.7,94,30.03,7.0,Calm,Calm,-,N/A,,Overcast,0,2013-10-16 08:55:00
5:15 AM,63.5,61.7,94,30.02,7.0,NNW,5.8,-,N/A,,Overcast,330,2013-10-16 09:15:00
5:35 AM,63.5,61.5,93,30.02,7.0,NNW,4.6,-,N/A,,Overcast,340,2013-10-16 09:35:00
5:55 AM,63.3,61.3,93,30.02,7.0,North,3.5,-,N/A,,Overcast,350,2013-10-16 09:55:00
6:15 AM,63.5,61.3,93,30.02,7.0,North,4.6,-,N/A,,Overcast,10,2013-10-16 10:15:00
6:35 AM,63.3,61.2,93,30.02,7.0,North,3.5,-,N/A,,Overcast,350,2013-10-16 10:35:00
6:55 AM,63.5,61.3,93,30.02,7.0,North,3.5,-,N/A,,Overcast,10,2013-10-16 10:55:00
7:15 AM,63.5,61.3,93,30.02,7.0,NNW,4.6,-,N/A,,Overcast,340,2013-10-16 11:15:00
7:35 AM,63.5,61.5,93,30.03,7.0,NNW,4.6,-,N/A,,Overcast,330,2013-10-16 11:35:00
7:55 AM,63.5,61.5,93,30.03,7.0,NNE,3.5,-,N/A,,Overcast,30,2013-10-16 11:55:00
8:15 AM,63.9,61.7,93,30.04,7.0,NNE,4.6,-,N/A,,Overcast,20,2013-10-16 12:15:00
8:35 AM,64.2,61.7,91,30.04,7.0,North,4.6,-,N/A,,Overcast,10,2013-10-16 12:35:00
8:55 AM,64.2,61.9,92,30.05,7.0,Calm,Calm,-,N/A,,Overcast,0,2013-10-16 12:55:00
9:15 AM,64.8,61.9,90,30.05,10.0,North,4.6,-,N/A,,Overcast,10,2013-10-16 13:15:00
9:35 AM,65.3,62.1,89,30.05,10.0,NNW,4.6,-,N/A,,Overcast,340,2013-10-16 13:35:00
9:55 AM,65.8,62.4,89,30.04,10.0,North,4.6,-,N/A,,Overcast,360,2013-10-16 13:55:00
10:15 AM,66.4,62.2,86,30.04,10.0,NNE,4.6,-,N/A,,Overcast,20,2013-10-16 14:15:00
10:35 AM,67.1,62.4,85,30.03,10.0,NNE,4.6,-,N/A,,Overcast,30,2013-10-16 14:35:00
10:55 AM,68.4,62.8,82,30.03,10.0,Calm,Calm,-,N/A,,Overcast,0,2013-10-16 14:55:00
11:15 AM,69.6,62.8,79,30.03,10.0,Calm,Calm,-,N/A,,Overcast,0,2013-10-16 15:15:00
11:35 AM,70.5,62.8,76,30.02,10.0,NNE,3.5,-,N/A,,Overcast,20,2013-10-16 15:35:00
11:55 AM,71.1,62.6,75,30.02,10.0,Calm,Calm,-,N/A,,Overcast,0,2013-10-16 15:55:00
12:15 PM,72.1,62.6,72,30.02,10.0,Calm,Calm,-,N/A,,Overcast,0,2013-10-16 16:15:00
12:35 PM,73.2,62.6,69,30.01,10.0,NW,3.5,-,N/A,,Overcast,320,2013-10-16 16:35:00
12:55 PM,73.6,62.6,68,30.00,10.0,NNW,4.6,-,N/A,,Overcast,330,2013-10-16 16:55:00
1:15 PM,72.9,62.1,69,30.00,10.0,Calm,Calm,-,N/A,,Overcast,0,2013-10-16 17:15:00
1:35 PM,72.9,61.5,67,29.99,10.0,Calm,Calm,-,N/A,,Overcast,0,2013-10-16 17:35:00
1:55 PM,73.8,60.8,64,29.98,10.0,NE,3.5,-,N/A,,Overcast,50,2013-10-16 17:55:00
2:15 PM,74.5,61.5,64,29.97,10.0,ESE,3.5,-,N/A,,Mostly Cloudy,110,2013-10-16 18:15:00
2:35 PM,73.9,61.3,65,29.97,10.0,Calm,Calm,-,N/A,,Overcast,0,2013-10-16 18:35:00
2:55 PM,72.9,61.2,67,29.97,10.0,Calm,Calm,-,N/A,,Overcast,0,2013-10-16 18:55:00
3:15 PM,72.7,61.3,67,29.97,10.0,Calm,Calm,-,N/A,,Overcast,0,2013-10-16 19:15:00
3:35 PM,72.5,61.9,69,29.97,10.0,Calm,Calm,-,N/A,,Overcast,0,2013-10-16 19:35:00
3:55 PM,72.7,61.9,69,29.97,10.0,Calm,Calm,-,N/A,,Overcast,0,2013-10-16 19:55:00
4:15 PM,72.5,62.8,71,29.97,10.0,Calm,Calm,-,N/A,,Overcast,0,2013-10-16 20:15:00
4:35 PM,72.0,63.1,74,29.97,10.0,Calm,Calm,-,N/A,,Overcast,0,2013-10-16 20:35:00
4:55 PM,72.0,63.3,74,29.96,10.0,Calm,Calm,-,N/A,,Overcast,0,2013-10-16 20:55:00
5:15 PM,72.0,62.4,72,29.96,10.0,Calm,Calm,-,N/A,,Overcast,0,2013-10-16 21:15:00
5:35 PM,72.3,61.9,70,29.96,10.0,Calm,Calm,-,N/A,,Overcast,0,2013-10-16 21:35:00
5:55 PM,71.8,62.4,72,29.96,10.0,Calm,Calm,-,N/A,,Overcast,0,2013-10-16 21:55:00
6:15 PM,70.9,62.8,75,29.97,10.0,Calm,Calm,-,N/A,,Overcast,0,2013-10-16 22:15:00
6:35 PM,70.2,62.8,77,29.96,10.0,Calm,Calm,-,N/A,,Overcast,0,2013-10-16 22:35:00
6:55 PM,68.7,63.3,83,29.97,10.0,Calm,Calm,-,N/A,,Overcast,0,2013-10-16 22:55:00
7:15 PM,66.9,63.5,89,29.97,10.0,Calm,Calm,-,N/A,,Overcast,0,2013-10-16 23:15:00
7:35 PM,65.7,63.3,92,29.97,10.0,Calm,Calm,-,N/A,,Overcast,0,2013-10-16 23:35:00
7:55 PM,64.8,62.8,93,29.97,7.0,Calm,Calm,-,N/A,,Scattered Clouds,0,2013-10-16 23:55:00
8:15 PM,63.3,61.5,94,29.98,7.0,Calm,Calm,-,N/A,,Clear,0,2013-10-17 00:15:00
8:35 PM,62.4,60.8,94,29.98,4.0,Calm,Calm,-,N/A,,Clear,0,2013-10-17 00:35:00
8:55 PM,62.1,60.4,94,29.98,7.0,Calm,Calm,-,N/A,,Mostly Cloudy,0,2013-10-17 00:55:00
9:35 PM,62.6,61.0,94,29.98,7.0,Calm,Calm,-,N/A,,Scattered Clouds,0,2013-10-17 01:35:00
9:55 PM,62.2,60.8,95,29.99,7.0,Calm,Calm,-,N/A,,Clear,0,2013-10-17 01:55:00
10:15 PM,62.6,61.2,95,29.99,10.0,Calm,Calm,-,N/A,,Clear,0,2013-10-17 02:15:00
10:35 PM,62.6,61.0,94,29.98,7.0,Calm,Calm,-,N/A,,Clear,0,2013-10-17 02:35:00
10:55 PM,62.2,60.6,94,29.98,5.0,Calm,Calm,-,N/A,,Clear,0,2013-10-17 02:55:00
11:15 PM,62.1,60.4,94,29.97,7.0,Calm,Calm,-,N/A,,Clear,0,2013-10-17 03:15:00
11:35 PM,61.5,60.1,95,29.97,4.0,Calm,Calm,-,N/A,,Clear,0,2013-10-17 03:35:00
11:55 PM,61.3,59.9,95,29.97,1.0,Calm,Calm,-,N/A,,Mostly Cloudy,0,2013-10-17 03:55:00